Journey to APT Taipei Poker Classic | Over 270 seats GTD | Warm Up Mega Satellites starts 15 July | $50K Main Event Bonus

Bounty Hunters Series 2024

$50M Bounty Hunters Series

7 กรกฎาคม - 29 กรกฎาคม 2024

เชิญชวนนักล่าเงินรางวัลทุกท่าน! มีการโพสต์ค่าหัวแล้ว และถึงเวลาท้าทายและสะสมค่าหัวที่สมควรได้รับ!

ฤดูร้อนนี้ Bounty Hunters Series มาพร้อมกับ $50,000,000 GTD และ $1,000,000 Bounty Leaderboard กำจัดคู่ต่อสู้ของคุณ ไต่อันดับ Bounty Leaderboard และเป็น Bounty King คนต่อไป!

การล่าจะเริ่มในวันที่ 7 กรกฎาคม และจะคงอยู่จนถึงวันที่ 29 กรกฎาคม 2024

ถึงช่วงล่าฤดูร้อนแล้ว!

การค่าหัวนั้นยาก แต่ค่าหัวนั้นคุ้มค่ามาก ด้วยเงินรางวัลรวม $50,000,000 เรามั่นใจว่านักล่าเงินรางวัลจากทั่วโลกจะมาร่วมต่อสู้กัน

ฝึกฝนทักษะการเล่นโป๊กเกอร์ของคุณและคว้าช่วงเวลาที่โอกาสอันสมบูรณ์แบบปรากฏ!

50m Guaranteee
รวม $50M GTD

รางวัลค่าหัวใหญ่ที่สุดในฤดูร้อน!

mystery bounty main event
Mystery Bounty Main Event

เงินรางวัลรวม $4M GTD, 10 x $100K Top Bounties!

bounty leaderboard
$1M Bounty Leaderboard

$40K Daily Leaderboard, KO มากขึ้น, เงินรางวัลมากขึ้น!

เล่น $108 Mystery Bounty Main Event รับส่วนแบ่งรางวัลรวม $4,000,000 GTD กลับบ้าน

หรือดียิ่งกว่านั้น – เป็นหนึ่งในผู้เล่น 10 คนที่ได้รับรางวัล $100,000 Top Bounty!

คุณลองนึกภาพการคว้าเงินรางวัล $100,000 กลับบ้านด้วยการโค่นผู้เล่นคนใดคนหนึ่งลงได้ไหม?

ไฮไลต์

$108 Mystery Bounty Main Event - $4M GTD

$25 Mystery Bounty Mini Main - $2M GTD

$50 Global MILLION$ Bounty Edition - $1M GTD

ทำลายสถิติ! $100K Mystery Bounties สิบรางวัล

ผลตอบแทนการลงทุนที่ดีที่สุด! รับความคุ้มค่าสูงสุดจากเงินของคุณ!

การแข่งขันสุดโปรดของโลกตอนนี้มาพร้อมกับรุ่น Special Bounty!

ซีรีส์ Bounty Hunter พิเศษทุกวันอาทิตย์

ทัวร์นาเมนต์ค่าหัวที่ยิ่งใหญ่ที่สุด!

$1,000,000 Bounty King Leaderboard

เป็น Bounty King คนต่อไปด้วยการน็อคเอาต์ให้ได้มากที่สุด!

รางวัลมากกว่า $40K ทุกวัน!

(1 KO = 1 Leaderboard Point )

ตารางเวลาอีเวนต์ฉบับสมบูรณ์

วันที่ วัน เวลา (UTC) เวลา (HKT) ชื่อกิจกรรม บายอิน การันตี
Jul 7 Sun 12:30 20:30 $215 Sunday Bounty Blast-Off $215 $35,000
Jul 7 Sun 12:30 20:30 $25 Sunday Bounty Blast-Off $25 $100,000
Jul 7 Sun 13:30 21:30 $10.80 Sunday Bounty Seven-Max $11 $50,000
Jul 7 Sun 13:30 21:30 $108 Sunday Bounty Seven-Max $108 $70,000
Jul 7 Sun 14:05 22:05 $10 Speed Racer POWER HOUR [10 BB] $10 $12,500
Jul 7 Sun 14:15 22:15 $25 Speed Racer POWER HOUR [10 BB] $25 $12,500
Jul 7 Sun 14:25 22:25 $50 Speed Racer POWER HOUR [10 BB] $50 $12,500
Jul 7 Sun 14:30 22:30 $840 Sunday Bounty Warm-Up HR $840 $75,000
Jul 7 Sun 14:30 22:30 $88 Sunday Bounty Warm-Up $88 $175,000
Jul 7 Sun 14:35 22:35 $100 Speed Racer POWER HOUR [10 BB] $100 $10,000
Jul 7 Sun 14:45 22:45 $200 Speed Racer POWER HOUR [10 BB] $200 $12,500
Jul 7 Sun 15:30 23:30 $44 Sunday Bounty Forty Stack $44 $200,000
Jul 7 Sun 16:30 00:30 (+1) $525 Bounty Hunters HR Main Event, $1M GTD $525 $1,000,000
Jul 7 Sun 16:30 00:30 (+1) $54 Bounty Hunters Sunday Main Event $54 $500,000
Jul 7 Sun 17:30 01:30 (+1) $215 Sunday Bounty Big Game $215 $350,000
Jul 7 Sun 17:30 01:30 (+1) $21.60 Sunday Bounty Big Game $22 $200,000
Jul 7 Sun 17:40 01:40 (+1) $215 Sunday Omaholic Big Game $215 $50,000
Jul 7 Sun 19:00 03:00 (+1) $1,050 Sunday HR Main Event [Bounty Edition] $1,050 $300,000
Jul 7 Sun 19:30 03:30 (+1) $320 GGMasters Bounty Special Edition $320 $400,000
Jul 7 Sun 19:30 03:30 (+1) $32 Sunday Bounty King $32 $175,000
Jul 7 Sun 19:40 03:40 (+1) $1,050 Sunday Omaholic Bounty HR $1,050 $50,000
Jul 7 Sun 19:40 03:40 (+1) $150 Sunday Omaholic Bounty Main $150 $100,000
Jul 7 Sun 20:00 04:00 (+1) $108 Sunday Showdown [Mystery Bounty] $108 $400,000
Jul 7 Sun 20:00 04:00 (+1) $15 Mini Showdown [Mystery Bounty] $15 $250,000
Jul 7 Sun 21:00 05:00 (+1) $1,050 Sunday HEATER HR [Bounty Turbo] $1,050 $75,000
Jul 7 Sun 21:00 05:00 (+1) $215 Sunday HEATER [Bounty Turbo] $215 $125,000
Jul 7 Sun 21:00 05:00 (+1) $25 Sunday Mini HEATER [Bounty Turbo] $25 $100,000
Jul 7 Sun 22:30 06:30 (+1) $77 LUCKY SEVENS [Bounty Turbo] $77 $125,000
Jul 7 Sun 23:30 07:30 (+1) $215 Sunday Last Call [Bounty Hyper] $215 $60,000
Jul 8 Mon 00:00 08:00 $88 Midnight Madness [Bounty Hyper] $88 $40,000
Jul 8 Mon 01:05 09:05 $10 Speed Racer POWER HOUR [10 BB] $10 $5,000
Jul 8 Mon 01:15 09:15 $25 Speed Racer POWER HOUR [10 BB] $25 $7,000
Jul 8 Mon 01:25 09:25 $50 Speed Racer POWER HOUR [10 BB] $50 $6,000
Jul 8 Mon 01:35 09:35 $100 Speed Racer POWER HOUR [10 BB] $100 $7,000
Jul 8 Mon 01:45 09:45 $200 Speed Racer POWER HOUR [10 BB] $200 $7,000
Jul 8 Mon 12:30 20:30 $25 Bounty Blast-Off $25 $50,000
Jul 8 Mon 13:30 21:30 $10.80 Monday Hangover [Variable Levels] $11 $30,000
Jul 8 Mon 14:05 22:05 $10 Speed Racer POWER HOUR [10 BB] $10 $12,500
Jul 8 Mon 14:15 22:15 $25 Speed Racer POWER HOUR [10 BB] $25 $12,500
Jul 8 Mon 14:25 22:25 $50 Speed Racer POWER HOUR [10 BB] $50 $12,500
Jul 8 Mon 14:30 22:30 $88 Bounty Warm-Up $88 $60,000
Jul 8 Mon 14:35 22:35 $100 Speed Racer POWER HOUR [10 BB] $100 $10,000
Jul 8 Mon 14:45 22:45 $200 Speed Racer POWER HOUR [10 BB] $200 $12,500
Jul 8 Mon 15:30 23:30 $44 Bounty Forty Stack $44 $80,000
Jul 8 Mon 16:30 00:30 (+1) $525 Bounty Hunters HR [6-Max] $525 $300,000
Jul 8 Mon 16:30 00:30 (+1) $54 Bounty Hunters Daily Main [6-Max] $54 $250,000
Jul 8 Mon 17:30 01:30 (+1) $215 Bounty Big Game $215 $150,000
Jul 8 Mon 17:30 01:30 (+1) $25 Bounty Big Game $25 $100,000
Jul 8 Mon 18:00 02:00 (+1) $1,050 Monday Monster Stack HR [Bounty Edition] $1,050 $200,000
Jul 8 Mon 18:00 02:00 (+1) $150 Monday Monster Stack [Bounty Edition] $150 $150,000
Jul 8 Mon 18:00 02:00 (+1) $15 Mini Monday Monster Stack [Bounty Edition] $15 $75,000
Jul 8 Mon 19:30 03:30 (+1) $32 Bounty King $32 $70,000
Jul 8 Mon 19:40 03:40 (+1) $525 Omaholic Bounty Fifty Stack $525 $12,500
Jul 8 Mon 19:40 03:40 (+1) $54 Omaholic Bounty Fifty Stack $54 $15,000
Jul 8 Mon 21:00 05:00 (+1) $215 Daily HEATER [Bounty Turbo] $215 $50,000
Jul 8 Mon 22:00 06:00 (+1) $66 SUPER SIX [Bounty Turbo] $66 $40,000
Jul 8 Mon 22:30 06:30 (+1) $25 HYPER 5-MAX $25 $25,000
Jul 9 Tue 00:00 08:00 $88 Midnight Madness [Bounty Hyper] $88 $40,000
Jul 9 Tue 01:05 09:05 $10 Speed Racer POWER HOUR [10 BB] $10 $5,000
Jul 9 Tue 01:15 09:15 $25 Speed Racer POWER HOUR [10 BB] $25 $7,000
Jul 9 Tue 01:25 09:25 $50 Speed Racer POWER HOUR [10 BB] $50 $6,000
Jul 9 Tue 01:35 09:35 $100 Speed Racer POWER HOUR [10 BB] $100 $7,000
Jul 9 Tue 01:45 09:45 $200 Speed Racer POWER HOUR [10 BB] $200 $7,000
Jul 9 Tue 13:30 21:30 $10.80 Bounty Hunters 6-Max $11 $35,000
Jul 9 Tue 14:05 22:05 $10 Speed Racer POWER HOUR [10 BB] $10 $12,500
Jul 9 Tue 14:15 22:15 $25 Speed Racer POWER HOUR [10 BB] $25 $12,500
Jul 9 Tue 14:25 22:25 $50 Speed Racer POWER HOUR [10 BB] $50 $12,500
Jul 9 Tue 14:35 22:35 $100 Speed Racer POWER HOUR [10 BB] $100 $10,000
Jul 9 Tue 14:45 22:45 $200 Speed Racer POWER HOUR [10 BB] $200 $12,500
Jul 9 Tue 16:30 00:30 (+1) $525 Bounty Hunters HR [Deepstack] $525 $200,000
Jul 9 Tue 16:30 00:30 (+1) $54 Bounty Hunters Daily Main [Deepstack] $54 $250,000
Jul 9 Tue 18:00 02:00 (+1) $1,050 Tuesday Classic HR [Bounty Edition] $1,050 $150,000
Jul 9 Tue 18:00 02:00 (+1) $150 Tuesday Classic [Bounty Edition] $150 $200,000
Jul 9 Tue 18:00 02:00 (+1) $15 Mini Tuesday Classic [Bounty Edition] $15 $85,000
Jul 10 Wed 01:05 09:05 $10 Speed Racer POWER HOUR [10 BB] $10 $5,000
Jul 10 Wed 01:15 09:15 $25 Speed Racer POWER HOUR [10 BB] $25 $7,000
Jul 10 Wed 01:25 09:25 $50 Speed Racer POWER HOUR [10 BB] $50 $6,000
Jul 10 Wed 01:35 09:35 $100 Speed Racer POWER HOUR [10 BB] $100 $7,000
Jul 10 Wed 01:45 09:45 $200 Speed Racer POWER HOUR [10 BB] $200 $7,000
Jul 10 Wed 13:30 21:30 $10.80 Bounty Hunters 6-Max $11 $35,000
Jul 10 Wed 14:05 22:05 $10 Speed Racer POWER HOUR [10 BB] $10 $12,500
Jul 10 Wed 14:15 22:15 $25 Speed Racer POWER HOUR [10 BB] $25 $12,500
Jul 10 Wed 14:25 22:25 $50 Speed Racer POWER HOUR [10 BB] $50 $12,500
Jul 10 Wed 14:35 22:35 $100 Speed Racer POWER HOUR [10 BB] $100 $10,000
Jul 10 Wed 14:45 22:45 $200 Speed Racer POWER HOUR [10 BB] $200 $12,500
Jul 10 Wed 16:30 00:30 (+1) $525 Bounty Hunters HR [Double Stack] $525 $200,000
Jul 10 Wed 16:30 00:30 (+1) $54 Bounty Hunters Daily Main [Double Stack] $54 $250,000
Jul 10 Wed 18:00 02:00 (+1) $1,050 Wednesday Wonderbox HR [Mystery Bounty] $1,050 $200,000
Jul 10 Wed 18:00 02:00 (+1) $150 Wednesday Wonderbox [Mystery Bounty] $150 $400,000
Jul 10 Wed 18:00 02:00 (+1) $15 Mini Wednesday Wonderbox [Mystery Bounty] $15 $200,000
Jul 11 Thu 01:05 09:05 $10 Speed Racer POWER HOUR [10 BB] $10 $5,000
Jul 11 Thu 01:15 09:15 $25 Speed Racer POWER HOUR [10 BB] $25 $7,000
Jul 11 Thu 01:25 09:25 $50 Speed Racer POWER HOUR [10 BB] $50 $6,000
Jul 11 Thu 01:35 09:35 $100 Speed Racer POWER HOUR [10 BB] $100 $7,000
Jul 11 Thu 01:45 09:45 $200 Speed Racer POWER HOUR [10 BB] $200 $7,000
Jul 11 Thu 13:30 21:30 $10.80 Bounty Hunters 6-Max $11 $35,000
Jul 11 Thu 14:05 22:05 $10 Speed Racer POWER HOUR [10 BB] $10 $12,500
Jul 11 Thu 14:15 22:15 $25 Speed Racer POWER HOUR [10 BB] $25 $12,500
Jul 11 Thu 14:25 22:25 $50 Speed Racer POWER HOUR [10 BB] $50 $12,500
Jul 11 Thu 14:35 22:35 $100 Speed Racer POWER HOUR [10 BB] $100 $10,000
Jul 11 Thu 14:45 22:45 $200 Speed Racer POWER HOUR [10 BB] $200 $12,500
Jul 11 Thu 16:30 00:30 (+1) $525 Bounty Hunters HR [Classic] $525 $300,000
Jul 11 Thu 16:30 00:30 (+1) $54 Bounty Hunters Daily Main [Classic] $54 $250,000
Jul 11 Thu 18:00 02:00 (+1) $1,050 Thursday Throwdown HR $1,050 $300,000
Jul 11 Thu 18:00 02:00 (+1) $150 Thursday Throwdown $150 $200,000
Jul 11 Thu 18:00 02:00 (+1) $15 Mini Thursday Throwdown $15 $85,000
Jul 12 Fri 01:05 09:05 $10 Speed Racer POWER HOUR [10 BB] $10 $5,000
Jul 12 Fri 01:15 09:15 $25 Speed Racer POWER HOUR [10 BB] $25 $7,000
Jul 12 Fri 01:25 09:25 $50 Speed Racer POWER HOUR [10 BB] $50 $6,000
Jul 12 Fri 01:35 09:35 $100 Speed Racer POWER HOUR [10 BB] $100 $7,000
Jul 12 Fri 01:45 09:45 $200 Speed Racer POWER HOUR [10 BB] $200 $7,000
Jul 12 Fri 13:30 21:30 $10.80 Furious Friday 5-Max $11 $30,000
Jul 12 Fri 14:05 22:05 $10 Speed Racer POWER HOUR [10 BB] $10 $12,500
Jul 12 Fri 14:15 22:15 $25 Speed Racer POWER HOUR [10 BB] $25 $12,500
Jul 12 Fri 14:25 22:25 $50 Speed Racer POWER HOUR [10 BB] $50 $12,500
Jul 12 Fri 14:35 22:35 $100 Speed Racer POWER HOUR [10 BB] $100 $10,000
Jul 12 Fri 14:45 22:45 $200 Speed Racer POWER HOUR [10 BB] $200 $12,500
Jul 12 Fri 16:30 00:30 (+1) $525 Bounty Hunters HR [Ultradeep Turbo] $525 $100,000
Jul 12 Fri 16:30 00:30 (+1) $54 Bounty Hunters Daily Main [Ultradeep Turbo] $54 $150,000
Jul 12 Fri 18:00 02:00 (+1) $1,050 Friday Night Fight HR [6-Max] $1,050 $150,000
Jul 12 Fri 18:00 02:00 (+1) $150 Friday Night Fight [6-Max] $150 $125,000
Jul 12 Fri 18:00 02:00 (+1) $15 Mini Friday Night Fight [6-Max] $15 $75,000
Jul 13 Sat 01:05 09:05 $10 Speed Racer POWER HOUR [10 BB] $10 $5,000
Jul 13 Sat 01:15 09:15 $25 Speed Racer POWER HOUR [10 BB] $25 $7,000
Jul 13 Sat 01:25 09:25 $50 Speed Racer POWER HOUR [10 BB] $50 $6,000
Jul 13 Sat 01:35 09:35 $100 Speed Racer POWER HOUR [10 BB] $100 $7,000
Jul 13 Sat 01:45 09:45 $200 Speed Racer POWER HOUR [10 BB] $200 $7,000
Jul 13 Sat 13:30 21:30 $10.80 Saturday Showdown 7-Max $11 $40,000
Jul 13 Sat 14:05 22:05 $10 Speed Racer POWER HOUR [10 BB] $10 $12,500
Jul 13 Sat 14:15 22:15 $25 Speed Racer POWER HOUR [10 BB] $25 $12,500
Jul 13 Sat 14:25 22:25 $50 Speed Racer POWER HOUR [10 BB] $50 $12,500
Jul 13 Sat 14:35 22:35 $100 Speed Racer POWER HOUR [10 BB] $100 $10,000
Jul 13 Sat 14:45 22:45 $200 Speed Racer POWER HOUR [10 BB] $200 $12,500
Jul 13 Sat 16:30 00:30 (+1) $525 Bounty Hunters HR [Big Bounties] $525 $200,000
Jul 13 Sat 16:30 00:30 (+1) $54 Bounty Hunters Daily Main [Big Bounties] $54 $250,000
Jul 13 Sat 18:00 02:00 (+1) $1,050 Saturday Secret KO HR [Mystery Bounty] $1,050 $250,000
Jul 13 Sat 18:00 02:00 (+1) $150 Saturday Secret KO [Mystery Bounty] $150 $500,000
Jul 13 Sat 18:00 02:00 (+1) $15 Mini Saturday Secret KO [Mystery Bounty] $15 $250,000
Jul 14 Sun 01:05 09:05 $10 Speed Racer POWER HOUR [10 BB] $10 $5,000
Jul 14 Sun 01:15 09:15 $25 Speed Racer POWER HOUR [10 BB] $25 $7,000
Jul 14 Sun 01:25 09:25 $50 Speed Racer POWER HOUR [10 BB] $50 $6,000
Jul 14 Sun 01:35 09:35 $100 Speed Racer POWER HOUR [10 BB] $100 $7,000
Jul 14 Sun 01:45 09:45 $200 Speed Racer POWER HOUR [10 BB] $200 $7,000
Jul 14 Sun 12:30 20:30 $215 Sunday Bounty Blast-Off $215 $35,000
Jul 14 Sun 12:30 20:30 $25 Sunday Bounty Blast-Off $25 $100,000
Jul 14 Sun 13:30 21:30 $10.80 Sunday Bounty Seven-Max $11 $50,000
Jul 14 Sun 13:30 21:30 $108 Sunday Bounty Seven-Max $108 $70,000
Jul 14 Sun 14:05 22:05 $10 Speed Racer POWER HOUR [10 BB] $10 $12,500
Jul 14 Sun 14:15 22:15 $25 Speed Racer POWER HOUR [10 BB] $25 $12,500
Jul 14 Sun 14:25 22:25 $50 Speed Racer POWER HOUR [10 BB] $50 $12,500
Jul 14 Sun 14:30 22:30 $840 Sunday Bounty Warm-Up HR $840 $75,000
Jul 14 Sun 14:30 22:30 $88 Sunday Bounty Warm-Up $88 $175,000
Jul 14 Sun 14:35 22:35 $100 Speed Racer POWER HOUR [10 BB] $100 $10,000
Jul 14 Sun 14:45 22:45 $200 Speed Racer POWER HOUR [10 BB] $200 $12,500
Jul 14 Sun 15:30 23:30 $44 Sunday Bounty Forty Stack $44 $200,000
Jul 14 Sun 16:30 00:30 (+1) $525 Bounty Hunters HR Main Event, $1M GTD $525 $1,000,000
Jul 14 Sun 16:30 00:30 (+1) $54 Bounty Hunters Sunday Main Event $54 $500,000
Jul 14 Sun 17:30 01:30 (+1) $215 Sunday Bounty Big Game $215 $350,000
Jul 14 Sun 17:30 01:30 (+1) $21.60 Sunday Bounty Big Game $22 $200,000
Jul 14 Sun 17:40 01:40 (+1) $215 Sunday Omaholic Big Game $215 $50,000
Jul 14 Sun 19:00 03:00 (+1) $1,050 Sunday HR Main Event [Bounty Edition] $1,050 $300,000
Jul 14 Sun 19:30 03:30 (+1) $320 GGMasters Bounty Special Edition $320 $400,000
Jul 14 Sun 19:30 03:30 (+1) $32 Sunday Bounty King $32 $175,000
Jul 14 Sun 19:40 03:40 (+1) $1,050 Sunday Omaholic Bounty HR $1,050 $50,000
Jul 14 Sun 19:40 03:40 (+1) $150 Sunday Omaholic Bounty Main $150 $100,000
Jul 14 Sun 20:00 04:00 (+1) $108 Sunday Showdown [Mystery Bounty] $108 $400,000
Jul 14 Sun 20:00 04:00 (+1) $15 Mini Showdown [Mystery Bounty] $15 $250,000
Jul 14 Sun 21:00 05:00 (+1) $1,050 Sunday HEATER HR [Bounty Turbo] $1,050 $75,000
Jul 14 Sun 21:00 05:00 (+1) $215 Sunday HEATER [Bounty Turbo] $215 $125,000
Jul 14 Sun 21:00 05:00 (+1) $25 Sunday Mini HEATER [Bounty Turbo] $25 $100,000
Jul 14 Sun 22:30 06:30 (+1) $77 LUCKY SEVENS [Bounty Turbo] $77 $125,000
Jul 14 Sun 23:30 07:30 (+1) $215 Sunday Last Call [Bounty Hyper] $215 $60,000
Jul 15 Mon 00:00 08:00 $88 Midnight Madness [Bounty Hyper] $88 $40,000
Jul 15 Mon 01:05 09:05 $10 Speed Racer POWER HOUR [10 BB] $10 $5,000
Jul 15 Mon 01:15 09:15 $25 Speed Racer POWER HOUR [10 BB] $25 $7,000
Jul 15 Mon 01:25 09:25 $50 Speed Racer POWER HOUR [10 BB] $50 $6,000
Jul 15 Mon 01:35 09:35 $100 Speed Racer POWER HOUR [10 BB] $100 $7,000
Jul 15 Mon 01:45 09:45 $200 Speed Racer POWER HOUR [10 BB] $200 $7,000
Jul 15 Mon 12:30 20:30 $25 Bounty Blast-Off $25 $50,000
Jul 15 Mon 13:30 21:30 $10.80 Monday Hangover [Variable Levels] $11 $30,000
Jul 15 Mon 14:05 22:05 $10 Speed Racer POWER HOUR [10 BB] $10 $12,500
Jul 15 Mon 14:15 22:15 $25 Speed Racer POWER HOUR [10 BB] $25 $12,500
Jul 15 Mon 14:25 22:25 $50 Speed Racer POWER HOUR [10 BB] $50 $12,500
Jul 15 Mon 14:30 22:30 $88 Bounty Warm-Up $88 $60,000
Jul 15 Mon 14:35 22:35 $100 Speed Racer POWER HOUR [10 BB] $100 $10,000
Jul 15 Mon 14:45 22:45 $200 Speed Racer POWER HOUR [10 BB] $200 $12,500
Jul 15 Mon 15:30 23:30 $44 Bounty Forty Stack $44 $80,000
Jul 15 Mon 16:30 00:30 (+1) $525 Bounty Hunters HR [6-Max] $525 $300,000
Jul 15 Mon 16:30 00:30 (+1) $54 Bounty Hunters Daily Main [6-Max] $54 $250,000
Jul 15 Mon 17:30 01:30 (+1) $215 Bounty Big Game $215 $150,000
Jul 15 Mon 17:30 01:30 (+1) $25 Bounty Big Game $25 $100,000
Jul 15 Mon 18:00 02:00 (+1) $1,050 Monday Monster Stack HR [Bounty Edition] $1,050 $200,000
Jul 15 Mon 18:00 02:00 (+1) $150 Monday Monster Stack [Bounty Edition] $150 $150,000
Jul 15 Mon 18:00 02:00 (+1) $15 Mini Monday Monster Stack [Bounty Edition] $15 $75,000
Jul 15 Mon 19:30 03:30 (+1) $32 Bounty King $32 $70,000
Jul 15 Mon 19:40 03:40 (+1) $525 Omaholic Bounty Fifty Stack $525 $12,500
Jul 15 Mon 19:40 03:40 (+1) $54 Omaholic Bounty Fifty Stack $54 $15,000
Jul 15 Mon 21:00 05:00 (+1) $215 Daily HEATER [Bounty Turbo] $215 $50,000
Jul 15 Mon 22:00 06:00 (+1) $66 SUPER SIX [Bounty Turbo] $66 $40,000
Jul 15 Mon 22:30 06:30 (+1) $25 HYPER 5-MAX $25 $25,000
Jul 16 Tue 00:00 08:00 $88 Midnight Madness [Bounty Hyper] $88 $40,000
Jul 16 Tue 01:05 09:05 $10 Speed Racer POWER HOUR [10 BB] $10 $5,000
Jul 16 Tue 01:15 09:15 $25 Speed Racer POWER HOUR [10 BB] $25 $7,000
Jul 16 Tue 01:25 09:25 $50 Speed Racer POWER HOUR [10 BB] $50 $6,000
Jul 16 Tue 01:35 09:35 $100 Speed Racer POWER HOUR [10 BB] $100 $7,000
Jul 16 Tue 01:45 09:45 $200 Speed Racer POWER HOUR [10 BB] $200 $7,000
Jul 16 Tue 13:30 21:30 $10.80 Bounty Hunters 6-Max $11 $35,000
Jul 16 Tue 14:05 22:05 $10 Speed Racer POWER HOUR [10 BB] $10 $12,500
Jul 16 Tue 14:15 22:15 $25 Speed Racer POWER HOUR [10 BB] $25 $12,500
Jul 16 Tue 14:25 22:25 $50 Speed Racer POWER HOUR [10 BB] $50 $12,500
Jul 16 Tue 14:35 22:35 $100 Speed Racer POWER HOUR [10 BB] $100 $10,000
Jul 16 Tue 14:45 22:45 $200 Speed Racer POWER HOUR [10 BB] $200 $12,500
Jul 16 Tue 16:30 00:30 (+1) $525 Bounty Hunters HR [Deepstack] $525 $200,000
Jul 16 Tue 16:30 00:30 (+1) $54 Bounty Hunters Daily Main [Deepstack] $54 $250,000
Jul 16 Tue 18:00 02:00 (+1) $1,050 Tuesday Classic HR [Bounty Edition] $1,050 $150,000
Jul 16 Tue 18:00 02:00 (+1) $150 Tuesday Classic [Bounty Edition] $150 $200,000
Jul 16 Tue 18:00 02:00 (+1) $15 Mini Tuesday Classic [Bounty Edition] $15 $85,000
Jul 17 Wed 01:05 09:05 $10 Speed Racer POWER HOUR [10 BB] $10 $5,000
Jul 17 Wed 01:15 09:15 $25 Speed Racer POWER HOUR [10 BB] $25 $7,000
Jul 17 Wed 01:25 09:25 $50 Speed Racer POWER HOUR [10 BB] $50 $6,000
Jul 17 Wed 01:35 09:35 $100 Speed Racer POWER HOUR [10 BB] $100 $7,000
Jul 17 Wed 01:45 09:45 $200 Speed Racer POWER HOUR [10 BB] $200 $7,000
Jul 17 Wed 13:30 21:30 $10.80 Bounty Hunters 6-Max $11 $35,000
Jul 17 Wed 14:05 22:05 $10 Speed Racer POWER HOUR [10 BB] $10 $12,500
Jul 17 Wed 14:15 22:15 $25 Speed Racer POWER HOUR [10 BB] $25 $12,500
Jul 17 Wed 14:25 22:25 $50 Speed Racer POWER HOUR [10 BB] $50 $12,500
Jul 17 Wed 14:35 22:35 $100 Speed Racer POWER HOUR [10 BB] $100 $10,000
Jul 17 Wed 14:45 22:45 $200 Speed Racer POWER HOUR [10 BB] $200 $12,500
Jul 17 Wed 16:30 00:30 (+1) $525 Bounty Hunters HR [Double Stack] $525 $200,000
Jul 17 Wed 16:30 00:30 (+1) $54 Bounty Hunters Daily Main [Double Stack] $54 $250,000
Jul 17 Wed 18:00 02:00 (+1) $1,050 Wednesday Wonderbox HR [Mystery Bounty] $1,050 $200,000
Jul 17 Wed 18:00 02:00 (+1) $150 Wednesday Wonderbox [Mystery Bounty] $150 $400,000
Jul 17 Wed 18:00 02:00 (+1) $15 Mini Wednesday Wonderbox [Mystery Bounty] $15 $200,000
Jul 18 Thu 01:05 09:05 $10 Speed Racer POWER HOUR [10 BB] $10 $5,000
Jul 18 Thu 01:15 09:15 $25 Speed Racer POWER HOUR [10 BB] $25 $7,000
Jul 18 Thu 01:25 09:25 $50 Speed Racer POWER HOUR [10 BB] $50 $6,000
Jul 18 Thu 01:35 09:35 $100 Speed Racer POWER HOUR [10 BB] $100 $7,000
Jul 18 Thu 01:45 09:45 $200 Speed Racer POWER HOUR [10 BB] $200 $7,000
Jul 18 Thu 13:30 21:30 $10.80 Bounty Hunters 6-Max $11 $35,000
Jul 18 Thu 14:05 22:05 $10 Speed Racer POWER HOUR [10 BB] $10 $12,500
Jul 18 Thu 14:15 22:15 $25 Speed Racer POWER HOUR [10 BB] $25 $12,500
Jul 18 Thu 14:25 22:25 $50 Speed Racer POWER HOUR [10 BB] $50 $12,500
Jul 18 Thu 14:35 22:35 $100 Speed Racer POWER HOUR [10 BB] $100 $10,000
Jul 18 Thu 14:45 22:45 $200 Speed Racer POWER HOUR [10 BB] $200 $12,500
Jul 18 Thu 16:30 00:30 (+1) $525 Bounty Hunters HR [Classic] $525 $300,000
Jul 18 Thu 16:30 00:30 (+1) $54 Bounty Hunters Daily Main [Classic] $54 $250,000
Jul 18 Thu 18:00 02:00 (+1) $1,050 Thursday Throwdown HR $1,050 $300,000
Jul 18 Thu 18:00 02:00 (+1) $150 Thursday Throwdown $150 $200,000
Jul 18 Thu 18:00 02:00 (+1) $15 Mini Thursday Throwdown $15 $85,000
Jul 19 Fri 01:05 09:05 $10 Speed Racer POWER HOUR [10 BB] $10 $5,000
Jul 19 Fri 01:15 09:15 $25 Speed Racer POWER HOUR [10 BB] $25 $7,000
Jul 19 Fri 01:25 09:25 $50 Speed Racer POWER HOUR [10 BB] $50 $6,000
Jul 19 Fri 01:35 09:35 $100 Speed Racer POWER HOUR [10 BB] $100 $7,000
Jul 19 Fri 01:45 09:45 $200 Speed Racer POWER HOUR [10 BB] $200 $7,000
Jul 19 Fri 13:30 21:30 $10.80 Furious Friday 5-Max $11 $30,000
Jul 19 Fri 14:05 22:05 $10 Speed Racer POWER HOUR [10 BB] $10 $12,500
Jul 19 Fri 14:15 22:15 $25 Speed Racer POWER HOUR [10 BB] $25 $12,500
Jul 19 Fri 14:25 22:25 $50 Speed Racer POWER HOUR [10 BB] $50 $12,500
Jul 19 Fri 14:35 22:35 $100 Speed Racer POWER HOUR [10 BB] $100 $10,000
Jul 19 Fri 14:45 22:45 $200 Speed Racer POWER HOUR [10 BB] $200 $12,500
Jul 19 Fri 16:30 00:30 (+1) $525 Bounty Hunters HR [Ultradeep Turbo] $525 $100,000
Jul 19 Fri 16:30 00:30 (+1) $54 Bounty Hunters Daily Main [Ultradeep Turbo] $54 $150,000
Jul 19 Fri 18:00 02:00 (+1) $1,050 Friday Night Fight HR [6-Max] $1,050 $150,000
Jul 19 Fri 18:00 02:00 (+1) $150 Friday Night Fight [6-Max] $150 $125,000
Jul 19 Fri 18:00 02:00 (+1) $15 Mini Friday Night Fight [6-Max] $15 $75,000
Jul 20 Sat 01:05 09:05 $10 Speed Racer POWER HOUR [10 BB] $10 $5,000
Jul 20 Sat 01:15 09:15 $25 Speed Racer POWER HOUR [10 BB] $25 $7,000
Jul 20 Sat 01:25 09:25 $50 Speed Racer POWER HOUR [10 BB] $50 $6,000
Jul 20 Sat 01:35 09:35 $100 Speed Racer POWER HOUR [10 BB] $100 $7,000
Jul 20 Sat 01:45 09:45 $200 Speed Racer POWER HOUR [10 BB] $200 $7,000
Jul 20 Sat 13:30 21:30 $10.80 Saturday Showdown 7-Max $11 $40,000
Jul 20 Sat 14:05 22:05 $10 Speed Racer POWER HOUR [10 BB] $10 $12,500
Jul 20 Sat 14:15 22:15 $25 Speed Racer POWER HOUR [10 BB] $25 $12,500
Jul 20 Sat 14:25 22:25 $50 Speed Racer POWER HOUR [10 BB] $50 $12,500
Jul 20 Sat 14:35 22:35 $100 Speed Racer POWER HOUR [10 BB] $100 $10,000
Jul 20 Sat 14:45 22:45 $200 Speed Racer POWER HOUR [10 BB] $200 $12,500
Jul 20 Sat 16:30 00:30 (+1) $525 Bounty Hunters HR [Big Bounties] $525 $200,000
Jul 20 Sat 16:30 00:30 (+1) $54 Bounty Hunters Daily Main [Big Bounties] $54 $250,000
Jul 20 Sat 18:00 02:00 (+1) $1,050 Saturday Secret KO HR [Mystery Bounty] $1,050 $250,000
Jul 20 Sat 18:00 02:00 (+1) $150 Saturday Secret KO [Mystery Bounty] $150 $500,000
Jul 20 Sat 18:00 02:00 (+1) $15 Mini Saturday Secret KO [Mystery Bounty] $15 $250,000
Jul 21 Sun 01:05 09:05 $10 Speed Racer POWER HOUR [10 BB] $10 $5,000
Jul 21 Sun 01:15 09:15 $25 Speed Racer POWER HOUR [10 BB] $25 $7,000
Jul 21 Sun 01:25 09:25 $50 Speed Racer POWER HOUR [10 BB] $50 $6,000
Jul 21 Sun 01:35 09:35 $100 Speed Racer POWER HOUR [10 BB] $100 $7,000
Jul 21 Sun 01:45 09:45 $200 Speed Racer POWER HOUR [10 BB] $200 $7,000
Jul 21 Sun 12:30 20:30 $215 Sunday Bounty Blast-Off $215 $35,000
Jul 21 Sun 12:30 20:30 $25 Sunday Bounty Blast-Off $25 $100,000
Jul 21 Sun 13:30 21:30 $10.80 Sunday Bounty Seven-Max $11 $50,000
Jul 21 Sun 13:30 21:30 $108 Sunday Bounty Seven-Max $108 $70,000
Jul 21 Sun 14:05 22:05 $10 Speed Racer POWER HOUR [10 BB] $10 $12,500
Jul 21 Sun 14:15 22:15 $25 Speed Racer POWER HOUR [10 BB] $25 $12,500
Jul 21 Sun 14:25 22:25 $50 Speed Racer POWER HOUR [10 BB] $50 $12,500
Jul 21 Sun 14:30 22:30 $840 Sunday Bounty Warm-Up HR $840 $75,000
Jul 21 Sun 14:30 22:30 $88 Sunday Bounty Warm-Up $88 $175,000
Jul 21 Sun 14:35 22:35 $100 Speed Racer POWER HOUR [10 BB] $100 $10,000
Jul 21 Sun 14:45 22:45 $200 Speed Racer POWER HOUR [10 BB] $200 $12,500
Jul 21 Sun 15:30 23:30 $44 Sunday Bounty Forty Stack $44 $200,000
Jul 21 Sun 16:30 00:30 (+1) $525 Bounty Hunters HR Main Event, $1M GTD $525 $1,000,000
Jul 21 Sun 16:30 00:30 (+1) $54 Bounty Hunters Sunday Main Event $54 $500,000
Jul 21 Sun 17:30 01:30 (+1) $215 Sunday Bounty Big Game $215 $350,000
Jul 21 Sun 17:30 01:30 (+1) $21.60 Sunday Bounty Big Game $22 $200,000
Jul 21 Sun 17:40 01:40 (+1) $215 Sunday Omaholic Big Game $215 $50,000
Jul 21 Sun 19:00 03:00 (+1) $1,050 Sunday HR Main Event [Bounty Edition] $1,050 $300,000
Jul 21 Sun 19:30 03:30 (+1) $320 GGMasters Bounty Special Edition $320 $400,000
Jul 21 Sun 19:30 03:30 (+1) $32 Sunday Bounty King $32 $175,000
Jul 21 Sun 19:40 03:40 (+1) $1,050 Sunday Omaholic Bounty HR $1,050 $50,000
Jul 21 Sun 19:40 03:40 (+1) $150 Sunday Omaholic Bounty Main $150 $100,000
Jul 21 Sun 20:00 04:00 (+1) $108 Sunday Showdown [Mystery Bounty] $108 $400,000
Jul 21 Sun 20:00 04:00 (+1) $15 Mini Showdown [Mystery Bounty] $15 $250,000
Jul 21 Sun 20:30 04:30 (+1) Global MILLION$ Bounty Edition, $1M GTD [Final Stage] $50 $1,000,000
Jul 21 Sun 21:00 05:00 (+1) $1,050 Sunday HEATER HR [Bounty Turbo] $1,050 $75,000
Jul 21 Sun 21:00 05:00 (+1) $215 Sunday HEATER [Bounty Turbo] $215 $125,000
Jul 21 Sun 21:00 05:00 (+1) $25 Sunday Mini HEATER [Bounty Turbo] $25 $100,000
Jul 21 Sun 22:30 06:30 (+1) $77 LUCKY SEVENS [Bounty Turbo] $77 $125,000
Jul 21 Sun 23:30 07:30 (+1) $215 Sunday Last Call [Bounty Hyper] $215 $60,000
Jul 22 Mon 00:00 08:00 $88 Midnight Madness [Bounty Hyper] $88 $40,000
Jul 22 Mon 01:05 09:05 $10 Speed Racer POWER HOUR [10 BB] $10 $5,000
Jul 22 Mon 01:15 09:15 $25 Speed Racer POWER HOUR [10 BB] $25 $7,000
Jul 22 Mon 01:25 09:25 $50 Speed Racer POWER HOUR [10 BB] $50 $6,000
Jul 22 Mon 01:35 09:35 $100 Speed Racer POWER HOUR [10 BB] $100 $7,000
Jul 22 Mon 01:45 09:45 $200 Speed Racer POWER HOUR [10 BB] $200 $7,000
Jul 22 Mon 12:30 20:30 $25 Bounty Blast-Off $25 $50,000
Jul 22 Mon 13:30 21:30 $10.80 Monday Hangover [Variable Levels] $11 $30,000
Jul 22 Mon 14:05 22:05 $10 Speed Racer POWER HOUR [10 BB] $10 $12,500
Jul 22 Mon 14:15 22:15 $25 Speed Racer POWER HOUR [10 BB] $25 $12,500
Jul 22 Mon 14:25 22:25 $50 Speed Racer POWER HOUR [10 BB] $50 $12,500
Jul 22 Mon 14:30 22:30 $88 Bounty Warm-Up $88 $60,000
Jul 22 Mon 14:35 22:35 $100 Speed Racer POWER HOUR [10 BB] $100 $10,000
Jul 22 Mon 14:45 22:45 $200 Speed Racer POWER HOUR [10 BB] $200 $12,500
Jul 22 Mon 15:30 23:30 $44 Bounty Forty Stack $44 $80,000
Jul 22 Mon 16:30 00:30 (+1) $525 Bounty Hunters HR [6-Max] $525 $300,000
Jul 22 Mon 16:30 00:30 (+1) $54 Bounty Hunters Daily Main [6-Max] $54 $250,000
Jul 22 Mon 17:30 01:30 (+1) $215 Bounty Big Game $215 $150,000
Jul 22 Mon 17:30 01:30 (+1) $25 Bounty Big Game $25 $100,000
Jul 22 Mon 18:00 02:00 (+1) $1,050 Monday Monster Stack HR [Bounty Edition] $1,050 $200,000
Jul 22 Mon 18:00 02:00 (+1) $150 Monday Monster Stack [Bounty Edition] $150 $150,000
Jul 22 Mon 18:00 02:00 (+1) $15 Mini Monday Monster Stack [Bounty Edition] $15 $75,000
Jul 22 Mon 19:30 03:30 (+1) $32 Bounty King $32 $70,000
Jul 22 Mon 19:40 03:40 (+1) $525 Omaholic Bounty Fifty Stack $525 $12,500
Jul 22 Mon 19:40 03:40 (+1) $54 Omaholic Bounty Fifty Stack $54 $15,000
Jul 22 Mon 21:00 05:00 (+1) $215 Daily HEATER [Bounty Turbo] $215 $50,000
Jul 22 Mon 22:00 06:00 (+1) $66 SUPER SIX [Bounty Turbo] $66 $40,000
Jul 22 Mon 22:30 06:30 (+1) $25 HYPER 5-MAX $25 $25,000
Jul 23 Tue 00:00 08:00 $88 Midnight Madness [Bounty Hyper] $88 $40,000
Jul 23 Tue 01:05 09:05 $10 Speed Racer POWER HOUR [10 BB] $10 $5,000
Jul 23 Tue 01:15 09:15 $25 Speed Racer POWER HOUR [10 BB] $25 $7,000
Jul 23 Tue 01:25 09:25 $50 Speed Racer POWER HOUR [10 BB] $50 $6,000
Jul 23 Tue 01:35 09:35 $100 Speed Racer POWER HOUR [10 BB] $100 $7,000
Jul 23 Tue 01:45 09:45 $200 Speed Racer POWER HOUR [10 BB] $200 $7,000
Jul 23 Tue 13:30 21:30 $10.80 Bounty Hunters 6-Max $11 $35,000
Jul 23 Tue 14:05 22:05 $10 Speed Racer POWER HOUR [10 BB] $10 $12,500
Jul 23 Tue 14:15 22:15 $25 Speed Racer POWER HOUR [10 BB] $25 $12,500
Jul 23 Tue 14:25 22:25 $50 Speed Racer POWER HOUR [10 BB] $50 $12,500
Jul 23 Tue 14:35 22:35 $100 Speed Racer POWER HOUR [10 BB] $100 $10,000
Jul 23 Tue 14:45 22:45 $200 Speed Racer POWER HOUR [10 BB] $200 $12,500
Jul 23 Tue 16:30 00:30 (+1) $525 Bounty Hunters HR [Deepstack] $525 $200,000
Jul 23 Tue 16:30 00:30 (+1) $54 Bounty Hunters Daily Main [Deepstack] $54 $250,000
Jul 23 Tue 18:00 02:00 (+1) $1,050 Tuesday Classic HR [Bounty Edition] $1,050 $150,000
Jul 23 Tue 18:00 02:00 (+1) $150 Tuesday Classic [Bounty Edition] $150 $200,000
Jul 23 Tue 18:00 02:00 (+1) $15 Mini Tuesday Classic [Bounty Edition] $15 $85,000
Jul 24 Wed 01:05 09:05 $10 Speed Racer POWER HOUR [10 BB] $10 $5,000
Jul 24 Wed 01:15 09:15 $25 Speed Racer POWER HOUR [10 BB] $25 $7,000
Jul 24 Wed 01:25 09:25 $50 Speed Racer POWER HOUR [10 BB] $50 $6,000
Jul 24 Wed 01:35 09:35 $100 Speed Racer POWER HOUR [10 BB] $100 $7,000
Jul 24 Wed 01:45 09:45 $200 Speed Racer POWER HOUR [10 BB] $200 $7,000
Jul 24 Wed 13:30 21:30 $10.80 Bounty Hunters 6-Max $11 $35,000
Jul 24 Wed 14:05 22:05 $10 Speed Racer POWER HOUR [10 BB] $10 $12,500
Jul 24 Wed 14:15 22:15 $25 Speed Racer POWER HOUR [10 BB] $25 $12,500
Jul 24 Wed 14:25 22:25 $50 Speed Racer POWER HOUR [10 BB] $50 $12,500
Jul 24 Wed 14:35 22:35 $100 Speed Racer POWER HOUR [10 BB] $100 $10,000
Jul 24 Wed 14:45 22:45 $200 Speed Racer POWER HOUR [10 BB] $200 $12,500
Jul 24 Wed 16:30 00:30 (+1) $525 Bounty Hunters HR [Double Stack] $525 $200,000
Jul 24 Wed 16:30 00:30 (+1) $54 Bounty Hunters Daily Main [Double Stack] $54 $250,000
Jul 24 Wed 18:00 02:00 (+1) $1,050 Wednesday Wonderbox HR [Mystery Bounty] $1,050 $200,000
Jul 24 Wed 18:00 02:00 (+1) $150 Wednesday Wonderbox [Mystery Bounty] $150 $400,000
Jul 24 Wed 18:00 02:00 (+1) $15 Mini Wednesday Wonderbox [Mystery Bounty] $15 $200,000
Jul 25 Thu 01:05 09:05 $10 Speed Racer POWER HOUR [10 BB] $10 $5,000
Jul 25 Thu 01:15 09:15 $25 Speed Racer POWER HOUR [10 BB] $25 $7,000
Jul 25 Thu 01:25 09:25 $50 Speed Racer POWER HOUR [10 BB] $50 $6,000
Jul 25 Thu 01:35 09:35 $100 Speed Racer POWER HOUR [10 BB] $100 $7,000
Jul 25 Thu 01:45 09:45 $200 Speed Racer POWER HOUR [10 BB] $200 $7,000
Jul 25 Thu 13:30 21:30 $10.80 Bounty Hunters 6-Max $11 $35,000
Jul 25 Thu 14:05 22:05 $10 Speed Racer POWER HOUR [10 BB] $10 $12,500
Jul 25 Thu 14:15 22:15 $25 Speed Racer POWER HOUR [10 BB] $25 $12,500
Jul 25 Thu 14:25 22:25 $50 Speed Racer POWER HOUR [10 BB] $50 $12,500
Jul 25 Thu 14:35 22:35 $100 Speed Racer POWER HOUR [10 BB] $100 $10,000
Jul 25 Thu 14:45 22:45 $200 Speed Racer POWER HOUR [10 BB] $200 $12,500
Jul 25 Thu 16:30 00:30 (+1) $525 Bounty Hunters HR [Classic] $525 $300,000
Jul 25 Thu 16:30 00:30 (+1) $54 Bounty Hunters Daily Main [Classic] $54 $250,000
Jul 25 Thu 18:00 02:00 (+1) $1,050 Thursday Throwdown HR $1,050 $300,000
Jul 25 Thu 18:00 02:00 (+1) $150 Thursday Throwdown $150 $200,000
Jul 25 Thu 18:00 02:00 (+1) $15 Mini Thursday Throwdown $15 $85,000
Jul 26 Fri 01:05 09:05 $10 Speed Racer POWER HOUR [10 BB] $10 $5,000
Jul 26 Fri 01:15 09:15 $25 Speed Racer POWER HOUR [10 BB] $25 $7,000
Jul 26 Fri 01:25 09:25 $50 Speed Racer POWER HOUR [10 BB] $50 $6,000
Jul 26 Fri 01:35 09:35 $100 Speed Racer POWER HOUR [10 BB] $100 $7,000
Jul 26 Fri 01:45 09:45 $200 Speed Racer POWER HOUR [10 BB] $200 $7,000
Jul 26 Fri 13:30 21:30 $10.80 Furious Friday 5-Max $11 $30,000
Jul 26 Fri 14:05 22:05 $10 Speed Racer POWER HOUR [10 BB] $10 $12,500
Jul 26 Fri 14:15 22:15 $25 Speed Racer POWER HOUR [10 BB] $25 $12,500
Jul 26 Fri 14:25 22:25 $50 Speed Racer POWER HOUR [10 BB] $50 $12,500
Jul 26 Fri 14:35 22:35 $100 Speed Racer POWER HOUR [10 BB] $100 $10,000
Jul 26 Fri 14:45 22:45 $200 Speed Racer POWER HOUR [10 BB] $200 $12,500
Jul 26 Fri 16:30 00:30 (+1) $525 Bounty Hunters HR [Ultradeep Turbo] $525 $100,000
Jul 26 Fri 16:30 00:30 (+1) $54 Bounty Hunters Daily Main [Ultradeep Turbo] $54 $150,000
Jul 26 Fri 18:00 02:00 (+1) $1,050 Friday Night Fight HR [6-Max] $1,050 $150,000
Jul 26 Fri 18:00 02:00 (+1) $150 Friday Night Fight [6-Max] $150 $125,000
Jul 26 Fri 18:00 02:00 (+1) $15 Mini Friday Night Fight [6-Max] $15 $75,000
Jul 27 Sat 01:05 09:05 $10 Speed Racer POWER HOUR [10 BB] $10 $5,000
Jul 27 Sat 01:15 09:15 $25 Speed Racer POWER HOUR [10 BB] $25 $7,000
Jul 27 Sat 01:25 09:25 $50 Speed Racer POWER HOUR [10 BB] $50 $6,000
Jul 27 Sat 01:35 09:35 $100 Speed Racer POWER HOUR [10 BB] $100 $7,000
Jul 27 Sat 01:45 09:45 $200 Speed Racer POWER HOUR [10 BB] $200 $7,000
Jul 27 Sat 13:30 21:30 $10.80 Saturday Showdown 7-Max $11 $40,000
Jul 27 Sat 14:05 22:05 $10 Speed Racer POWER HOUR [10 BB] $10 $12,500
Jul 27 Sat 14:15 22:15 $25 Speed Racer POWER HOUR [10 BB] $25 $12,500
Jul 27 Sat 14:25 22:25 $50 Speed Racer POWER HOUR [10 BB] $50 $12,500
Jul 27 Sat 14:35 22:35 $100 Speed Racer POWER HOUR [10 BB] $100 $10,000
Jul 27 Sat 14:45 22:45 $200 Speed Racer POWER HOUR [10 BB] $200 $12,500
Jul 27 Sat 16:30 00:30 (+1) $525 Bounty Hunters HR [Big Bounties] $525 $200,000
Jul 27 Sat 16:30 00:30 (+1) $54 Bounty Hunters Daily Main [Big Bounties] $54 $250,000
Jul 27 Sat 18:00 02:00 (+1) $1,050 Saturday Secret KO HR [Mystery Bounty] $1,050 $250,000
Jul 27 Sat 18:00 02:00 (+1) $150 Saturday Secret KO [Mystery Bounty] $150 $500,000
Jul 27 Sat 18:00 02:00 (+1) $15 Mini Saturday Secret KO [Mystery Bounty] $15 $250,000
Jul 28 Sun 01:05 09:05 $10 Speed Racer POWER HOUR [10 BB] $10 $5,000
Jul 28 Sun 01:15 09:15 $25 Speed Racer POWER HOUR [10 BB] $25 $7,000
Jul 28 Sun 01:25 09:25 $50 Speed Racer POWER HOUR [10 BB] $50 $6,000
Jul 28 Sun 01:35 09:35 $100 Speed Racer POWER HOUR [10 BB] $100 $7,000
Jul 28 Sun 01:45 09:45 $200 Speed Racer POWER HOUR [10 BB] $200 $7,000
Jul 28 Sun 12:30 20:30 $215 Sunday Bounty Blast-Off $215 $35,000
Jul 28 Sun 12:30 20:30 $25 Sunday Bounty Blast-Off $25 $100,000
Jul 28 Sun 13:30 21:30 $10.80 Sunday Bounty Seven-Max $11 $50,000
Jul 28 Sun 13:30 21:30 $108 Sunday Bounty Seven-Max $108 $70,000
Jul 28 Sun 14:05 22:05 $10 Speed Racer POWER HOUR [10 BB] $10 $12,500
Jul 28 Sun 14:15 22:15 $25 Speed Racer POWER HOUR [10 BB] $25 $12,500
Jul 28 Sun 14:25 22:25 $50 Speed Racer POWER HOUR [10 BB] $50 $12,500
Jul 28 Sun 14:30 22:30 $840 Sunday Bounty Warm-Up HR $840 $75,000
Jul 28 Sun 14:30 22:30 $88 Sunday Bounty Warm-Up $88 $175,000
Jul 28 Sun 14:35 22:35 $100 Speed Racer POWER HOUR [10 BB] $100 $10,000
Jul 28 Sun 14:45 22:45 $200 Speed Racer POWER HOUR [10 BB] $200 $12,500
Jul 28 Sun 15:30 23:30 $44 Sunday Bounty Forty Stack $44 $200,000
Jul 28 Sun 16:30 00:30 (+1) $525 Bounty Hunters HR Main Event, $1M GTD $525 $1,000,000
Jul 28 Sun 16:30 00:30 (+1) $54 Bounty Hunters Sunday Main Event $54 $500,000
Jul 28 Sun 17:30 01:30 (+1) $215 Sunday Bounty Big Game $215 $350,000
Jul 28 Sun 17:30 01:30 (+1) $21.60 Sunday Bounty Big Game $22 $200,000
Jul 28 Sun 17:40 01:40 (+1) $215 Sunday Omaholic Big Game $215 $50,000
Jul 28 Sun 19:00 03:00 (+1) $1,050 Sunday HR Main Event [Bounty Edition] $1,050 $300,000
Jul 28 Sun 19:30 03:30 (+1) $320 GGMasters Bounty Special Edition $320 $400,000
Jul 28 Sun 19:30 03:30 (+1) $32 Sunday Bounty King $32 $175,000
Jul 28 Sun 19:40 03:40 (+1) $1,050 Sunday Omaholic Bounty HR $1,050 $50,000
Jul 28 Sun 19:40 03:40 (+1) $150 Sunday Omaholic Bounty Main $150 $100,000
Jul 28 Sun 20:00 04:00 (+1) $108 Sunday Showdown [Mystery Bounty] $108 $400,000
Jul 28 Sun 20:00 04:00 (+1) $15 Mini Showdown [Mystery Bounty] $15 $250,000
Jul 28 Sun 21:00 05:00 (+1) $1,050 Sunday HEATER HR [Bounty Turbo] $1,050 $75,000
Jul 28 Sun 21:00 05:00 (+1) $215 Sunday HEATER [Bounty Turbo] $215 $125,000
Jul 28 Sun 21:00 05:00 (+1) $25 Sunday Mini HEATER [Bounty Turbo] $25 $100,000
Jul 28 Sun 22:30 06:30 (+1) $77 LUCKY SEVENS [Bounty Turbo] $77 $125,000
Jul 28 Sun 23:30 07:30 (+1) $215 Sunday Last Call [Bounty Hyper] $215 $60,000
Jul 29 Mon 00:00 08:00 $88 Midnight Madness [Bounty Hyper] $88 $40,000
Jul 29 Mon 01:05 09:05 $10 Speed Racer POWER HOUR [10 BB] $10 $5,000
Jul 29 Mon 01:15 09:15 $25 Speed Racer POWER HOUR [10 BB] $25 $7,000
Jul 29 Mon 01:25 09:25 $50 Speed Racer POWER HOUR [10 BB] $50 $6,000
Jul 29 Mon 01:35 09:35 $100 Speed Racer POWER HOUR [10 BB] $100 $7,000
Jul 29 Mon 01:45 09:45 $200 Speed Racer POWER HOUR [10 BB] $200 $7,000
Jul 29 Mon 12:30 20:30 $25 Bounty Blast-Off $25 $50,000
Jul 29 Mon 13:30 21:30 $10.80 Monday Hangover [Variable Levels] $11 $30,000
Jul 29 Mon 14:05 22:05 $10 Speed Racer POWER HOUR [10 BB] $10 $12,500
Jul 29 Mon 14:15 22:15 $25 Speed Racer POWER HOUR [10 BB] $25 $12,500
Jul 29 Mon 14:25 22:25 $50 Speed Racer POWER HOUR [10 BB] $50 $12,500
Jul 29 Mon 14:30 22:30 $88 Bounty Warm-Up $88 $60,000
Jul 29 Mon 14:35 22:35 $100 Speed Racer POWER HOUR [10 BB] $100 $10,000
Jul 29 Mon 14:45 22:45 $200 Speed Racer POWER HOUR [10 BB] $200 $12,500
Jul 29 Mon 15:30 23:30 $44 Bounty Forty Stack $44 $80,000
Jul 29 Mon 16:30 00:30 (+1) $525 Bounty Hunters HR [6-Max] $525 $300,000
Jul 29 Mon 16:30 00:30 (+1) $54 Bounty Hunters Daily Main [6-Max] $54 $250,000
Jul 29 Mon 17:30 01:30 (+1) $215 Bounty Big Game $215 $150,000
Jul 29 Mon 17:30 01:30 (+1) $25 Bounty Big Game $25 $100,000
Jul 29 Mon 18:00 02:00 (+1) $1,050 Monday Monster Stack HR [Bounty Edition] $1,050 $200,000
Jul 29 Mon 18:00 02:00 (+1) $150 Monday Monster Stack [Bounty Edition] $150 $150,000
Jul 29 Mon 18:00 02:00 (+1) $15 Mini Monday Monster Stack [Bounty Edition] $15 $75,000
Jul 29 Mon 18:30 02:30 (+1) Mystery MILLION$ Main Event, $4M GTD [Day 2] $108 $4,000,000
Jul 29 Mon 19:30 03:30 (+1) $32 Bounty King $32 $70,000
Jul 29 Mon 19:40 03:40 (+1) $525 Omaholic Bounty Fifty Stack $525 $12,500
Jul 29 Mon 19:40 03:40 (+1) $54 Omaholic Bounty Fifty Stack $54 $15,000
Jul 29 Mon 21:00 05:00 (+1) $215 Daily HEATER [Bounty Turbo] $215 $50,000
Jul 29 Mon 22:00 06:00 (+1) $66 SUPER SIX [Bounty Turbo] $66 $40,000
Jul 29 Mon 22:30 06:30 (+1) $25 HYPER 5-MAX $25 $25,000
Jul 30 Tue 00:00 08:00 $88 Midnight Madness [Bounty Hyper] $88 $40,000
Jul 30 Tue 01:05 09:05 $10 Speed Racer POWER HOUR [10 BB] $10 $5,000
Jul 30 Tue 01:15 09:15 $25 Speed Racer POWER HOUR [10 BB] $25 $7,000
Jul 30 Tue 01:25 09:25 $50 Speed Racer POWER HOUR [10 BB] $50 $6,000
Jul 30 Tue 01:35 09:35 $100 Speed Racer POWER HOUR [10 BB] $100 $7,000
Jul 30 Tue 01:45 09:45 $200 Speed Racer POWER HOUR [10 BB] $200 $7,000

คำถามที่พบบ่อย (FAQ)

หากคุณต้องการความช่วยเหลือเพิ่มเติม โปรดติดต่อเจ้าหน้าที่ฝ่ายสนับสนุนที่เป็นมิตรของเราซึ่งพร้อมให้ความช่วยเหลือคุณตลอด 24 ชั่วโมงทุกวัน

เมื่อไรรางวัลค่าหัวจะเข้าบัญชีของฉัน?

รางวัลค่าหัวจะถูกโอนเข้าบัญชีผู้เล่นของคุณทันทีที่คุณ KO คู่ต่อสู้ สามารถพบได้ในประวัติการทำธุรกรรมของคุณเป็นธุรกรรมแต่ละรายการ

ค่าหัวสิ้นสุดเมื่อไหร่?

ค่าหัวจะยังคงเล่นอยู่จนถึงช่วง Heads Up รอบสุดท้าย ซึ่งผู้ชนะจะได้รับค่าหัวของผู้แพ้เมื่อทัวร์นาเมนต์สิ้นสุดลง

ทัวร์นาเมนต์ Mystery Bounty คืออะไร?

ใน Mystery Bounty ค่าหัวจะจ่ายในช่วงสุดท้ายเท่านั้น และจะเป็นแบบสุ่ม ซึ่งหมายความว่าคุณสามารถชนะรางวัลใหญ่ที่สุดได้แม้ว่าคุณจะตกรอบตั้งแต่ช่วงต้นของช่วงสุดท้ายก็ตาม!

เกิดอะไรขึ้นถ้ามีคะแนนเสมอกัน?

ในกรณีที่มีการเสมอกันในกระดานผู้นำ ผู้ที่ไปถึงคะแนนก่อนจะเป็นผู้ชนะ ในกรณีที่เกิดขึ้นไม่บ่อยนักที่ผู้เล่นยังคงเสมอกัน ปัจจัยในการตัดสินใจต่อไปคือเวลาสิ้นสุดของทัวร์นาเมนต์ซึ่งถึงคะแนนรวม

เวลาใดที่นับเป็นหนึ่งวันสำหรับ Bounty King Daily Leaderboard?

Bounty King Leaderboard จะจัดขึ้นทุกวันตั้งแต่เวลา 14.00 น. - 13.59 น. (HKT)

ข้อกำหนดและเงื่อนไข

  1. ผู้เล่นจะต้องมีอายุ 18 ปีขึ้นไปจึงจะสามารถเข้าร่วมโปรโมชันนี้ได้
  2. สามารถรับคะแนนได้ในระหว่างทัวร์นาเมนต์ Bounty Hunter Series เท่านั้น
  3. สกุลเงินทั้งหมดเสนอราคาเป็น US Dollar เว้นแต่จะระบุไว้เป็นอย่างอื่น
  4. *โปรดทราบว่าการการันตีพูลรางวัลของทัวร์นาเมนต์อาจมีการเปลี่ยนแปลง และจำนวนเงินบางส่วนที่ระบุไว้ในเว็บไซต์นี้อาจไม่เป็นปัจจุบัน โปรดตรวจสอบจำนวนการการันตีที่ระบุไว้ในล็อบบี้ทัวร์นาเมนต์ของแอป Natural8 เพื่อดูข้อมูลพูลรางวัลล่าสุด การมอบรางวัลทัวร์นาเมนต์จะเป็นไปตามขั้นตอนการจ่ายเงินมาตรฐานของ Natural8
  5. Natural8 ขอสงวนสิทธิ์ในการตรวจสอบผู้เล่นที่สงสัยว่ามีการฉ้อโกงและดำเนินการใด ๆ ที่จำเป็น ในกรณีที่มีการใช้หลายบัญชี การล่าโบนัส หรือการเล่นผิดกติกา Natural8 ขอสงวนสิทธิ์ในการริบเงินรางวัลใด ๆ ที่จ่ายไปพร้อมกับยอดเงินสดคงเหลือ โดยไม่ต้องแจ้งให้ทราบล่วงหน้า
  6. Natural8 ขอสงวนสิทธิ์ในการยกเลิกหรือแก้ไขทัวร์นาเมนต์นี้และโปรโมชั่นได้ตลอดเวลาโดยไม่ต้องแจ้งให้ทราบล่วงหน้า และขึ้นอยู่กับดุลยพินิจของเราแต่เพียงผู้เดียว
  7. โปรโมชันนี้อยู่ภายใต้ ข้อกำหนดและเงื่อนไข ของเว็บไซต์ Natural8
  8. Natural8 เป็นผู้สนับสนุนการพนันที่ปลอดภัยยิ่งขึ้น ถ้าคุณรู้สึกว่าคุณอาจมีปัญหาการเล่นการพนันออนไลน์ โปรดขอคำแนะนำหรือการปรึกษาเพิ่มเติมได้ที่ www.begambleaware.org

คุณอาจชอบ